Location: Newark
(44.2003°N, 3.2583°E)
Time: 07:00:19
(UTC+00:00)

Transit 2A Rocket - Visible Passes

Search period start: 16 October 2019 00:00
Search period end: 26 October 2019 00:00
Orbit: 593 x 910 km, 66.7° (Epoch: 15 October)

Date Brightness Start Highest point End Pass type
(mag) Time Alt. Az. Time Alt. Az. Time Alt. Az.
16 Oct 7.3 04:36:49 10° SSE 04:40:52 23° ESE 04:44:42 10° ENE visible
17 Oct 7.9 03:56:14 10° SE 03:58:36 13° ESE 04:00:53 10° ENE visible
18 Oct 5.5 04:53:03 10° SSW 04:58:08 58° ESE 05:02:48 10° NE visible
19 Oct 6.5 04:11:07 10° S 04:15:43 33° ESE 04:19:59 10° NE visible
20 Oct 7.3 03:29:48 10° SSE 03:33:23 19° ESE 03:36:46 10° ENE visible
20 Oct 4.9 05:10:34 10° SW 05:15:36 58° NW 05:20:14 10° NNE visible
21 Oct 7.8 02:50:17 10° ESE 02:51:08 10° ESE 02:51:59 10° E visible
21 Oct 4.8 04:28:20 12° SSW 04:33:03 83° ESE 04:37:45 10° NNE visible
22 Oct 5.7 03:48:24 29° S 03:50:35 47° ESE 03:55:07 10° NE visible
22 Oct 5.8 05:29:09 10° WSW 05:33:18 26° NW 05:37:12 10° N visible
23 Oct 6.6 03:08:09 27° ESE 03:08:12 27° ESE 03:12:12 10° NE visible
23 Oct 5.2 04:48:07 24° WSW 04:50:35 41° NW 04:55:00 10° NNE visible
24 Oct 7.6 02:27:40 13° E 02:27:40 13° E 02:28:43 10° ENE visible
24 Oct 4.6 04:07:37 66° W 04:08:00 70° WNW 04:12:39 10° NNE visible
25 Oct 5.8 03:26:57 43° NE 03:26:57 43° NE 03:30:08 10° NE visible
25 Oct 6.2 05:06:54 17° WNW 05:08:25 20° NW 05:11:47 10° N visible
